Tracking 31027 objects as of 19-Jul-2025
HD Live streaming from Space Station
objects crossing your sky now

SCOUT G-1 R/B

Track SCOUT G-1 R/B now!
10-day predictions


NORAD ID: 19421
Int'l Code: 1988-074C
Perigee: 1,038.3 km
Apogee: 1,179.9 km
Inclination: 90.0 °
Period: 107.3 minutes
Semi major axis: 7480 km
RCS: 0.883 m2 (medium)
Launch date: August 25, 1988
Source: United States (US)
Launch site: AIR FORCE WESTERN TEST RANGE (AFWTR)

Note: This is a ROCKET BODY
Your satellite tracking list
STARLINK-2062
Track 1 satellite(s)




NASA's NSSDC Master Catalog

Two Line Element Set (TLE):
1 19421U 88074C   25199.52671824  .00000068  00000-0  10426-3 0  9995
2 19421  90.0300  20.1815 0094685 336.4649  76.0833 13.41973195806076
Source of the keplerian elements: AFSPC